Tracking 19170 objects as of 23-May-2018
HD Live streaming from Space Station
objects crossing your sky now

SL-12 R/B(2)

Track SL-12 R/B(2) now!


NORAD ID: 26486
Int'l Code: 2000-051D
Perigee: 3,306.2 km
Apogee: 49,666.1 km
Inclination: 62.6 °
Period: 987.9 minutes
Semi major axis: 32857 km
RCS: 27.9141 m2 (large)
Launch date: September 5, 2000
Source: Commonwealth of Independent States (former USSR) (CIS)
Launch site: TYURATAM MISSILE AND SPACE COMPLEX (TTMTR)

Note: This is a ROCKET BODY
aabbcc
Your satellite tracking list
Your tracking list is empty




NASA's NSSDC Master Catalog

Two Line Element Set (TLE):
1 26486U 00051D   18141.43812843 +.00000141 +00000-0 +00000-0 0  9996
2 26486 062.6326 110.9564 7054760 265.2571 326.6937 01.45766556094257
Source of the keplerian elements: AFSPC